This is the latest recevied weather packets stored in our database for station/object W1REE. If no packets are shown the sender has not sent any weather packets the latest 10 day(s).
| Time | Temp. | Humidity | Pressure | Rain* | Wind** | Luminosity | Snow |
|---|---|---|---|---|---|---|---|
| 1778075922 | 0° C | 89% | 1019.5 hPa | 0 mm | - | 53 W/m² | - |
| 1778075618 | 0° C | 90% | 1019.6 hPa | 0 mm | - | 56 W/m² | - |
| 1778075315 | 0° C | 89% | 1019.5 hPa | 0 mm | - | 65 W/m² | - |
| 1778075011 | 0° C | 90% | 1019.6 hPa | 0 mm | - | 61 W/m² | - |
| 1778074709 | -0.56° C | 90% | 1019.4 hPa | 0 mm | - | 60 W/m² | - |
| 1778074405 | -0.56° C | 91% | 1019.6 hPa | 0 mm | - | 55 W/m² | - |
| 1778074102 | -0.56° C | 90% | 1019.3 hPa | 0 mm | - | 43 W/m² | - |
| 1778073799 | -0.56° C | 91% | 1019 hPa | 0 mm | - | 30 W/m² | - |
| 1778073497 | -0.56° C | 92% | 1019 hPa | 0 mm | - | 25 W/m² | - |
| 1778073193 | -0.56° C | 93% | 1019.2 hPa | 0 mm | - | 24 W/m² | - |
| 1778072890 | -1.11° C | 94% | 1019.2 hPa | 0 mm | - | 21 W/m² | - |
| 1778072587 | -1.11° C | 95% | 1018.9 hPa | 0 mm | - | 19 W/m² | - |
| 1778072285 | -1.11° C | 95% | 1018.9 hPa | 0 mm | - | 21 W/m² | - |
| 1778071983 | -1.11° C | 95% | 1019.2 hPa | 0 mm | - | 20 W/m² | - |
| 1778071681 | -1.11° C | 95% | 1018.9 hPa | 0 mm | - | 13 W/m² | - |
| 1778071378 | -1.11° C | 94% | 1018.8 hPa | 0 mm | - | 9 W/m² | - |
| 1778071075 | -1.11° C | 94% | 1018.7 hPa | 0 mm | - | 6 W/m² | - |
| 1778070774 | -0.56° C | 94% | 1018.6 hPa | 0 mm | - | 4 W/m² | - |
| 1778070470 | -1.11° C | 94% | 1018.4 hPa | 0 mm | - | 5 W/m² | - |
| 1778070167 | -1.11° C | 94% | 1018.2 hPa | 0 mm | - | 4 W/m² | - |
| 1778069866 | -1.11° C | 94% | 1018.3 hPa | 0 mm | - | 2 W/m² | - |
| 1778069562 | -1.11° C | 95% | 1018.2 hPa | 0 mm | - | 2 W/m² | - |
| 1778069259 | -1.11° C | 94% | 1018 hPa | 0 mm | - | 1 W/m² | - |
| 1778068957 | -1.11° C | 94% | 1018 hPa | 0 mm | - | 1 W/m² | - |
| 1778068655 | -0.56° C | 95% | 1018.1 hPa | 0 mm | - | 1 W/m² | - |
* Rain latest hour (hover to see other rain measurements)
** Current wind speed in m/s (hover to see current wind gust speed)